North Myrtle Beach, SC

6:36 PM EDT on October 19, 2017 (GMT -0400)
Grand Strand

Weather History for KCRE - November, 2011

Change the Weather History Date:

Thursday, November 24, 2011

  Actual Average Record
Temperature  
Mean Temperature 51 °F 54 °F  
Max Temperature 64 °F 64 °F 76 °F (1993)
Min Temperature 37 °F 44 °F 27 °F (2013)
Degree Days  
Heating Degree Days 14 11  
Month to date heating degree days 171 199  
Since 1 July heating degree days 284 289  
Cooling Degree Days 0 0  
Month to date cooling degree days 10 12  
Year to date cooling degree days 2201 1895  
Moisture  
Dew Point 35 °F    
Average Humidity 61    
Maximum Humidity 92    
Minimum Humidity 30    
Precipitation  
Precipitation 0.00 in 0.10 in 1.11 in (2001)
Month to date precipitation 1.97 2.43  
Year to date precipitation 31.52 47.94  
Sea Level Pressure  
Sea Level Pressure 30.29 in    
Wind  
Wind Speed 5 mph (North)    
Max Wind Speed 18 mph    
Max Gust Speed 23 mph    
Visibility 10 miles    
Events      
T = Trace of Precipitation, MM = Missing Value Source: NWS Daily Summary

Daily Weather History Graph

Daily Weather History Graph

Search for Another Location

Airport or City:

Trip Planner

Search our weather history database for the weather conditions in past years. The results will help you decide how hot, cold, wet, or windy it might be!

Date:

Astronomy

Nov. 24, 2011 Rise Set
Actual Time 6:55 AM EST 5:07 PM EST
Civil Twilight 6:28 AM EST 5:34 PM EST
Nautical Twilight 5:57 AM EST 6:05 PM EST
Astronomical Twilight 5:27 AM EST 6:35 PM EST
Moon 6:10 AM EST (11/24) 4:38 PM EST (11/24)
Length of Visible Light 11h 06m
Length of Day
10h 12m
Waning Crescent, 0% of the Moon is Illuminated
Nov 24
Waning Crescent
Nov 25
New
Dec 2
First Quarter
Dec 10
Full
Dec 17
Last Quarter

Hourly Weather History & Observations

Time (EST) Temp. Windchill Dew Point Humidity Pressure Visibility Wind Dir Wind Speed Gust Speed Precip Events Conditions
12:53 AM 51.1 °F - 36.0 °F 56% 30.14 in 10.0 mi NW 3.5 mph - N/A   Clear
1:53 AM 48.9 °F - 36.0 °F 61% 30.16 in 10.0 mi NW 3.5 mph - N/A   Clear
2:53 AM 46.9 °F - 36.0 °F 66% 30.17 in 10.0 mi WNW 3.5 mph - N/A   Clear
3:53 AM 46.9 °F - 36.0 °F 66% 30.18 in 10.0 mi Variable 4.6 mph - N/A   Clear
4:53 AM 46.0 °F 43.9 °F 35.1 °F 66% 30.21 in 10.0 mi NNW 4.6 mph - N/A   Clear
5:53 AM 46.0 °F 43.1 °F 35.1 °F 66% 30.23 in 10.0 mi NNW 5.8 mph - N/A   Clear
6:53 AM 45.0 °F 41.8 °F 35.1 °F 68% 30.25 in 10.0 mi NNW 5.8 mph - N/A   Clear
8:39 AM 50.0 °F - 35.6 °F 58% 30.29 in 10.0 mi North 9.2 mph - N/A   Partly Cloudy
8:53 AM 51.1 °F - 36.0 °F 56% 30.30 in 10.0 mi NNE 8.1 mph - N/A   Clear
9:53 AM 55.9 °F - 33.1 °F 42% 30.32 in 10.0 mi NE 13.8 mph 19.6 mph N/A   Clear
10:53 AM 57.9 °F - 30.0 °F 35% 30.32 in 10.0 mi NNE 16.1 mph 20.7 mph N/A   Clear
11:53 AM 61.0 °F - 30.9 °F 32% 30.31 in 10.0 mi NNE 12.7 mph 20.7 mph N/A   Clear
12:53 PM 62.1 °F - 30.0 °F 30% 30.30 in 10.0 mi NNE 12.7 mph - N/A   Clear
1:53 PM 63.0 °F - 30.9 °F 30% 30.29 in 10.0 mi North 10.4 mph 19.6 mph N/A   Clear
2:53 PM 63.0 °F - 32.0 °F 31% 30.29 in 10.0 mi NNE 10.4 mph - N/A   Clear
3:53 PM 63.0 °F - 32.0 °F 31% 30.31 in 10.0 mi NNE 6.9 mph - N/A   Clear
5:53 PM 50.0 °F - 39.0 °F 66% 30.33 in 10.0 mi Calm Calm - N/A   Clear
6:53 PM 46.0 °F - 39.0 °F 76% 30.35 in 10.0 mi Calm Calm - N/A   Clear
7:53 PM 43.0 °F - 37.9 °F 82% 30.36 in 10.0 mi Calm Calm - N/A   Clear
8:53 PM 42.1 °F - 37.9 °F 85% 30.36 in 10.0 mi Calm Calm - N/A   Clear
9:53 PM 39.9 °F - 37.0 °F 89% 30.37 in 10.0 mi Calm Calm - N/A   Clear
10:53 PM 37.9 °F - 36.0 °F 93% 30.38 in 10.0 mi Calm Calm - N/A   Clear
11:53 PM 37.9 °F - 36.0 °F 93% 30.37 in 10.0 mi Calm Calm - N/A   Clear